Карточка аэропорта UWUU

Внимание!
Информация на этой странице в стадии наполнения.
Если вы не увидели какой-то информации, или заметили неточность - пожалуйста сообщите нам!
Спасибо!
Команда RU-STAFF
Название аэропортаУфа
Название аэропорта (англ.)Ufa
Превышение450 ft. (137.2 m.)
Координаты54°33.6', 55°52.2'
Высота перехода5000 ft
Эшелон переходаFL070
Коды ответчика6730-6731
Зона ОрВДСамара РПИ (UWWW)
Данные METARUWUU 191130Z 33004MPS 290V020 9999 BKN040 26/15 Q1006 R32L/0///60 NOSIG
Проноз погоды (TAF)UWUU 191056Z 1912/2012 35003G13MPS 8000 BKN040 TX26/2011Z TN15/2001Z TEMPO 1912/1921 31003G10MPS SCT020CB TEMPO 1921/2006 VRB01MPS 2100 BR BKN007 TEMPO 2006/2012 30003G10MPS BKN020CB
NOTAMshow/hide NOTAM
AWOS   TABLE

Информация о ВПП

ВПП Длина ВПП (м.) Покрытие Курс ВПП Частота ILS
14R3761Бетон138110.3
32L3761Бетон318108.7

Диспетчерские позиции

Позывной Наименование органа УВД Частота
UWUU_GNDУфа-Руление119.000
UWUU_R_APPУфа-Круг120.900
UWUU_APPУфа-Подход126.000
UWUU_TWRУфа-Вышка131.000



Спутниковое изображение